Time,TemperatureF,DewpointF,PressureIn,WindDirection,WindDirectionDegrees,WindSpeedMPH,WindSpeedGustMPH,Humidity,HourlyPrecipIn,Conditions,Clouds,dailyrainin,SoftwareType,DateUTC
2013-07-30 00:03:00,69.3,56.2,0.00,NW,315,0.9,4.0,63,0.00,,,0.00,WUHU216HW,2013-07-30 07:03:00,
2013-07-30 00:08:00,69.3,55.7,0.00,NNW,338,0.4,2.5,62,0.00,,,0.00,WUHU216HW,2013-07-30 07:08:00,
2013-07-30 00:13:00,69.3,55.7,0.00,NW,315,1.3,1.8,62,0.00,,,0.00,WUHU216HW,2013-07-30 07:13:00,
2013-07-30 00:18:00,69.1,55.5,0.00,NNW,338,2.2,2.5,62,0.00,,,0.00,WUHU216HW,2013-07-30 07:18:00,
2013-07-30 00:23:00,69.1,55.5,0.00,NNW,338,1.3,2.5,62,0.00,,,0.00,WUHU216HW,2013-07-30 07:23:00,
2013-07-30 00:28:00,69.1,55.5,0.00,NW,315,0.2,2.0,62,0.00,,,0.00,WUHU216HW,2013-07-30 07:28:00,
2013-07-30 00:33:00,69.1,55.5,0.00,North,0,1.1,2.7,62,0.00,,,0.00,WUHU216HW,2013-07-30 07:33:00,
2013-07-30 00:38:00,68.9,55.4,0.00,NNW,338,1.3,2.7,62,0.00,,,0.00,WUHU216HW,2013-07-30 07:38:00,
2013-07-30 00:43:00,68.9,55.8,0.00,NNW,338,0.2,1.6,63,0.00,,,0.00,WUHU216HW,2013-07-30 07:43:00,
2013-07-30 00:48:00,68.9,55.8,0.00,North,0,0.4,2.0,63,0.00,,,0.00,WUHU216HW,2013-07-30 07:48:00,
2013-07-30 00:53:00,68.8,56.1,0.00,WNW,293,1.8,2.0,64,0.00,,,0.00,WUHU216HW,2013-07-30 07:53:00,
2013-07-30 00:58:00,68.8,56.1,0.00,NNW,338,2.5,2.5,64,0.00,,,0.00,WUHU216HW,2013-07-30 07:58:00,
2013-07-30 01:03:00,68.6,55.9,0.00,North,0,0.2,2.5,64,0.00,,,0.00,WUHU216HW,2013-07-30 08:03:00,
2013-07-30 01:08:00,68.4,56.2,0.00,NW,315,0.4,2.5,65,0.00,,,0.00,WUHU216HW,2013-07-30 08:08:00,
2013-07-30 01:13:00,68.2,56.0,0.00,WSW,248,1.8,3.4,65,0.00,,,0.00,WUHU216HW,2013-07-30 08:13:00,
2013-07-30 01:18:00,68.0,56.7,0.00,NW,315,1.1,4.0,67,0.00,,,0.00,WUHU216HW,2013-07-30 08:18:00,
2013-07-30 01:23:00,68.0,56.7,0.00,NNE,23,0.4,4.0,67,0.00,,,0.00,WUHU216HW,2013-07-30 08:23:00,
2013-07-30 01:28:00,67.9,56.5,0.00,West,270,1.1,3.6,67,0.00,,,0.00,WUHU216HW,2013-07-30 08:28:00,
2013-07-30 01:33:00,67.9,56.5,0.00,North,0,0.2,1.3,67,0.00,,,0.00,WUHU216HW,2013-07-30 08:33:00,
2013-07-30 01:38:00,67.9,56.5,0.00,North,0,1.1,1.3,67,0.00,,,0.00,WUHU216HW,2013-07-30 08:38:00,
2013-07-30 01:43:00,67.7,56.4,0.00,North,0,0.2,1.3,67,0.00,,,0.00,WUHU216HW,2013-07-30 08:43:00,
2013-07-30 01:48:00,67.7,56.4,0.00,ENE,68,0.4,2.2,67,0.00,,,0.00,WUHU216HW,2013-07-30 08:48:00,
2013-07-30 01:53:00,67.5,56.2,0.00,NNW,338,0.4,2.2,67,0.00,,,0.00,WUHU216HW,2013-07-30 08:53:00,
2013-07-30 01:58:00,67.3,56.4,0.00,NNW,338,1.6,2.9,68,0.00,,,0.00,WUHU216HW,2013-07-30 08:58:00,
2013-07-30 02:03:00,67.1,56.3,0.00,NW,315,2.5,2.9,68,0.00,,,0.00,WUHU216HW,2013-07-30 09:03:00,
2013-07-30 02:08:00,67.0,56.4,0.00,NW,315,2.9,3.1,69,0.00,,,0.00,WUHU216HW,2013-07-30 09:08:00,
2013-07-30 02:13:00,66.8,56.3,0.00,NNW,338,2.5,3.1,69,0.00,,,0.00,WUHU216HW,2013-07-30 09:13:00,
2013-07-30 02:18:00,66.6,56.1,0.00,North,0,0.7,6.3,69,0.00,,,0.00,WUHU216HW,2013-07-30 09:18:00,
2013-07-30 02:23:00,66.6,56.5,0.00,NW,315,0.9,6.3,70,0.00,,,0.00,WUHU216HW,2013-07-30 09:23:00,
2013-07-30 02:28:00,66.4,56.3,0.00,NW,315,2.2,3.4,70,0.00,,,0.00,WUHU216HW,2013-07-30 09:28:00,
2013-07-30 02:33:00,66.2,56.2,0.00,NNW,338,1.8,2.2,70,0.00,,,0.00,WUHU216HW,2013-07-30 09:33:00,
2013-07-30 02:38:00,66.2,56.5,0.00,NW,315,1.8,4.9,71,0.00,,,0.00,WUHU216HW,2013-07-30 09:38:00,
2013-07-30 02:43:00,66.1,56.3,0.00,North,0,2.7,3.1,71,0.00,,,0.00,WUHU216HW,2013-07-30 09:43:00,
2013-07-30 02:48:00,66.1,56.3,0.00,NNW,338,1.3,8.1,71,0.00,,,0.00,WUHU216HW,2013-07-30 09:48:00,
2013-07-30 02:53:00,66.1,56.3,0.00,NNW,338,3.6,8.1,71,0.00,,,0.00,WUHU216HW,2013-07-30 09:53:00,
2013-07-30 02:58:00,65.9,56.3,0.00,WNW,293,0.4,3.6,71,0.00,,,0.00,WUHU216HW,2013-07-30 09:58:00,
2013-07-30 03:03:00,65.7,56.1,0.00,NNW,338,2.5,3.8,71,0.00,,,0.00,WUHU216HW,2013-07-30 10:03:00,
2013-07-30 03:08:00,65.7,56.1,0.00,NNW,338,1.1,4.3,71,0.00,,,0.00,WUHU216HW,2013-07-30 10:08:00,
2013-07-30 03:13:00,65.7,56.4,0.00,NNW,338,2.5,4.3,72,0.00,,,0.00,WUHU216HW,2013-07-30 10:13:00,
2013-07-30 03:18:00,65.5,56.3,0.00,NNW,338,1.8,4.7,72,0.00,,,0.00,WUHU216HW,2013-07-30 10:18:00,
2013-07-30 03:23:00,65.5,56.3,0.00,NW,315,3.4,4.7,72,0.00,,,0.00,WUHU216HW,2013-07-30 10:23:00,
2013-07-30 03:28:00,65.3,56.4,0.00,West,270,2.0,4.0,73,0.00,,,0.00,WUHU216HW,2013-07-30 10:28:00,
2013-07-30 03:33:00,65.3,56.4,0.00,NW,315,5.1,5.1,73,0.00,,,0.00,WUHU216HW,2013-07-30 10:33:00,
2013-07-30 03:38:00,65.3,56.4,0.00,West,270,3.4,5.1,73,0.00,,,0.00,WUHU216HW,2013-07-30 10:38:00,
2013-07-30 03:43:00,65.3,56.4,0.00,WNW,293,3.4,6.5,73,0.00,,,0.00,WUHU216HW,2013-07-30 10:43:00,
2013-07-30 03:48:00,65.3,56.4,0.00,WNW,293,2.5,6.5,73,0.00,,,0.00,WUHU216HW,2013-07-30 10:48:00,
2013-07-30 03:53:00,65.2,56.3,0.00,WNW,293,4.0,5.4,73,0.00,,,0.00,WUHU216HW,2013-07-30 10:53:00,
2013-07-30 03:58:00,65.2,56.3,0.00,West,270,3.1,4.9,73,0.00,,,0.00,WUHU216HW,2013-07-30 10:58:00,
2013-07-30 04:03:00,65.0,56.2,0.00,NW,315,2.7,5.4,73,0.00,,,0.00,WUHU216HW,2013-07-30 11:03:00,
2013-07-30 04:08:00,65.0,56.2,0.00,NNW,338,0.7,5.4,73,0.00,,,0.00,WUHU216HW,2013-07-30 11:08:00,
2013-07-30 04:13:00,64.8,56.4,0.00,NNW,338,1.3,4.0,74,0.00,,,0.00,WUHU216HW,2013-07-30 11:13:00,
2013-07-30 04:18:00,64.8,56.4,0.00,NNW,338,2.0,3.8,74,0.00,,,0.00,WUHU216HW,2013-07-30 11:18:00,
2013-07-30 04:23:00,64.6,56.2,0.00,WNW,293,1.8,7.2,74,0.00,,,0.00,WUHU216HW,2013-07-30 11:23:00,
2013-07-30 04:28:00,64.6,56.2,0.00,West,270,2.0,7.2,74,0.00,,,0.00,WUHU216HW,2013-07-30 11:28:00,
2013-07-30 04:33:00,64.4,56.0,0.00,North,0,1.3,5.1,74,0.00,,,0.00,WUHU216HW,2013-07-30 11:33:00,
2013-07-30 04:38:00,64.3,56.2,0.00,NW,315,1.6,3.8,75,0.00,,,0.00,WUHU216HW,2013-07-30 11:38:00,
2013-07-30 04:43:00,64.3,56.2,0.00,West,270,2.5,3.6,75,0.00,,,0.00,WUHU216HW,2013-07-30 11:43:00,
2013-07-30 04:48:00,64.1,56.0,0.00,WSW,248,2.0,3.6,75,0.00,,,0.00,WUHU216HW,2013-07-30 11:48:00,
2013-07-30 04:53:00,64.1,56.0,0.00,North,0,3.1,4.3,75,0.00,,,0.00,WUHU216HW,2013-07-30 11:53:00,
2013-07-30 04:58:00,63.9,55.8,0.00,North,0,2.9,4.3,75,0.00,,,0.00,WUHU216HW,2013-07-30 11:58:00,
2013-07-30 05:03:00,63.9,55.8,0.00,ESE,113,1.1,4.0,75,0.00,,,0.00,WUHU216HW,2013-07-30 12:03:00,
2013-07-30 05:08:00,63.7,56.0,0.00,NW,315,1.8,5.1,76,0.00,,,0.00,WUHU216HW,2013-07-30 12:08:00,
2013-07-30 05:13:00,63.7,55.6,0.00,North,0,0.2,5.1,75,0.00,,,0.00,WUHU216HW,2013-07-30 12:13:00,
2013-07-30 05:18:00,63.7,56.0,0.00,North,0,3.4,3.4,76,0.00,,,0.00,WUHU216HW,2013-07-30 12:18:00,
2013-07-30 05:23:00,63.4,55.6,0.00,NW,315,2.5,3.4,76,0.00,,,0.00,WUHU216HW,2013-07-30 12:23:00,
2013-07-30 05:28:00,63.4,55.6,0.00,North,0,1.1,4.0,76,0.00,,,0.00,WUHU216HW,2013-07-30 12:28:00,
2013-07-30 05:33:00,63.2,55.4,0.00,North,0,1.8,4.0,76,0.00,,,0.00,WUHU216HW,2013-07-30 12:33:00,
2013-07-30 05:38:00,63.2,55.4,0.00,ESE,113,2.5,3.8,76,0.00,,,0.00,WUHU216HW,2013-07-30 12:38:00,
2013-07-30 05:43:00,63.2,55.4,0.00,NNW,338,0.4,4.9,76,0.00,,,0.00,WUHU216HW,2013-07-30 12:43:00,
2013-07-30 05:48:00,63.0,55.3,0.00,West,270,5.6,5.6,76,0.00,,,0.00,WUHU216HW,2013-07-30 12:48:00,
2013-07-30 05:53:00,63.0,55.3,0.00,NW,315,3.4,5.6,76,0.00,,,0.00,WUHU216HW,2013-07-30 12:53:00,
2013-07-30 05:58:00,63.0,55.6,0.00,WSW,248,1.3,4.9,77,0.00,,,0.00,WUHU216HW,2013-07-30 12:58:00,
2013-07-30 06:03:00,62.8,55.4,0.00,NNW,338,0.9,4.9,77,0.00,,,0.00,WUHU216HW,2013-07-30 13:03:00,
2013-07-30 06:08:00,62.8,55.4,0.00,WNW,293,2.5,3.8,77,0.00,,,0.00,WUHU216HW,2013-07-30 13:08:00,
2013-07-30 06:13:00,62.8,55.4,0.00,NW,315,2.7,4.0,77,0.00,,,0.00,WUHU216HW,2013-07-30 13:13:00,
2013-07-30 06:18:00,62.6,55.3,0.00,NNW,338,2.0,4.7,77,0.00,,,0.00,WUHU216HW,2013-07-30 13:18:00,
2013-07-30 06:23:00,62.6,55.3,0.00,NNW,338,1.8,4.7,77,0.00,,,0.00,WUHU216HW,2013-07-30 13:23:00,
2013-07-30 06:28:00,62.6,55.3,0.00,NW,315,4.3,4.3,77,0.00,,,0.00,WUHU216HW,2013-07-30 13:28:00,
2013-07-30 06:33:00,62.6,55.3,0.00,NNE,23,1.1,6.3,77,0.00,,,0.00,WUHU216HW,2013-07-30 13:33:00,
2013-07-30 06:38:00,62.5,55.1,0.00,North,0,1.3,6.3,77,0.00,,,0.00,WUHU216HW,2013-07-30 13:38:00,
2013-07-30 06:43:00,62.5,55.4,0.00,North,0,0.0,3.6,78,0.00,,,0.00,WUHU216HW,2013-07-30 13:43:00,
2013-07-30 06:48:00,62.6,55.6,0.00,NNW,338,3.1,3.1,78,0.00,,,0.00,WUHU216HW,2013-07-30 13:48:00,
2013-07-30 06:53:00,62.5,55.4,0.00,NNW,338,4.5,4.5,78,0.00,,,0.00,WUHU216HW,2013-07-30 13:53:00,
2013-07-30 06:58:00,62.5,55.8,0.00,NNW,338,2.2,4.5,79,0.00,,,0.00,WUHU216HW,2013-07-30 13:58:00,
2013-07-30 07:03:00,62.5,55.8,0.00,NNW,338,2.2,3.8,79,0.00,,,0.00,WUHU216HW,2013-07-30 14:03:00,
2013-07-30 07:08:00,62.3,55.6,0.00,NNE,23,2.7,5.4,79,0.00,,,0.00,WUHU216HW,2013-07-30 14:08:00,
2013-07-30 07:13:00,62.3,55.6,0.00,North,0,2.2,5.4,79,0.00,,,0.00,WUHU216HW,2013-07-30 14:13:00,
2013-07-30 07:18:00,62.3,55.6,0.00,NW,315,2.2,4.7,79,0.00,,,0.00,WUHU216HW,2013-07-30 14:18:00,
2013-07-30 07:23:00,62.1,55.5,0.00,NNW,338,0.4,4.7,79,0.00,,,0.00,WUHU216HW,2013-07-30 14:23:00,
2013-07-30 07:28:00,62.1,55.5,0.00,NNW,338,4.3,4.3,79,0.00,,,0.00,WUHU216HW,2013-07-30 14:28:00,
2013-07-30 07:33:00,62.1,55.5,0.00,WNW,293,3.1,4.3,79,0.00,,,0.00,WUHU216HW,2013-07-30 14:33:00,
2013-07-30 07:38:00,62.1,55.5,0.00,North,0,0.9,3.6,79,0.00,,,0.00,WUHU216HW,2013-07-30 14:38:00,
2013-07-30 07:43:00,62.3,55.6,0.00,NW,315,2.2,7.4,79,0.00,,,0.00,WUHU216HW,2013-07-30 14:43:00,
2013-07-30 07:48:00,62.3,55.6,0.00,WSW,248,3.4,7.4,79,0.00,,,0.00,WUHU216HW,2013-07-30 14:48:00,
2013-07-30 07:53:00,62.6,56.0,0.00,NW,315,0.7,3.4,79,0.00,,,0.00,WUHU216HW,2013-07-30 14:53:00,
2013-07-30 07:58:00,62.8,56.2,0.00,NW,315,3.4,3.4,79,0.00,,,0.00,WUHU216HW,2013-07-30 14:58:00,
2013-07-30 08:03:00,62.8,55.8,0.00,NW,315,2.7,6.0,78,0.00,,,0.00,WUHU216HW,2013-07-30 15:03:00,
2013-07-30 08:08:00,63.2,55.8,0.00,NW,315,5.8,6.3,77,0.00,,,0.00,WUHU216HW,2013-07-30 15:08:00,
2013-07-30 08:13:00,63.4,55.6,0.00,WNW,293,3.6,6.3,76,0.00,,,0.00,WUHU216HW,2013-07-30 15:13:00,
2013-07-30 08:18:00,63.5,56.2,0.00,South,180,2.5,4.9,77,0.00,,,0.00,WUHU216HW,2013-07-30 15:18:00,
2013-07-30 08:23:00,63.5,56.2,0.00,WNW,293,4.3,4.9,77,0.00,,,0.00,WUHU216HW,2013-07-30 15:23:00,
2013-07-30 08:28:00,63.7,56.3,0.00,North,0,2.7,4.3,77,0.00,,,0.00,WUHU216HW,2013-07-30 15:28:00,
2013-07-30 08:33:00,63.9,56.2,0.00,NNW,338,2.2,4.0,76,0.00,,,0.00,WUHU216HW,2013-07-30 15:33:00,
2013-07-30 08:38:00,64.3,56.5,0.00,ENE,68,0.2,4.0,76,0.00,,,0.00,WUHU216HW,2013-07-30 15:38:00,
2013-07-30 08:43:00,64.4,56.3,0.00,NNE,23,4.9,4.9,75,0.00,,,0.00,WUHU216HW,2013-07-30 15:43:00,
2013-07-30 08:48:00,64.6,56.2,0.00,NNE,23,0.4,6.9,74,0.00,,,0.00,WUHU216HW,2013-07-30 15:48:00,
2013-07-30 08:53:00,64.8,56.4,0.00,NNW,338,1.6,6.9,74,0.00,,,0.00,WUHU216HW,2013-07-30 15:53:00,
2013-07-30 08:58:00,64.8,56.4,0.00,NNW,338,1.8,3.6,74,0.00,,,0.00,WUHU216HW,2013-07-30 15:58:00,
2013-07-30 09:03:00,65.2,56.7,0.00,NW,315,1.1,4.5,74,0.00,,,0.00,WUHU216HW,2013-07-30 16:03:00,
2013-07-30 09:08:00,65.5,57.0,0.00,NNW,338,1.3,4.9,74,0.00,,,0.00,WUHU216HW,2013-07-30 16:08:00,
2013-07-30 09:13:00,65.9,57.0,0.00,West,270,3.4,6.5,73,0.00,,,0.00,WUHU216HW,2013-07-30 16:13:00,
2013-07-30 09:18:00,65.9,57.0,0.00,NNE,23,4.9,6.5,73,0.00,,,0.00,WUHU216HW,2013-07-30 16:18:00,
2013-07-30 09:23:00,65.9,56.6,0.00,WSW,248,6.3,6.3,72,0.00,,,0.00,WUHU216HW,2013-07-30 16:23:00,
2013-07-30 09:28:00,66.1,57.2,0.00,NNW,338,4.9,10.5,73,0.00,,,0.00,WUHU216HW,2013-07-30 16:28:00,
2013-07-30 09:33:00,66.4,57.1,0.00,WSW,248,2.5,10.5,72,0.00,,,0.00,WUHU216HW,2013-07-30 16:33:00,
2013-07-30 09:38:00,67.0,57.2,0.00,NNW,338,5.1,5.1,71,0.00,,,0.00,WUHU216HW,2013-07-30 16:38:00,
2013-07-30 09:43:00,67.1,57.4,0.00,North,0,1.6,6.3,71,0.00,,,0.00,WUHU216HW,2013-07-30 16:43:00,
2013-07-30 09:48:00,67.3,57.2,0.00,NNW,338,3.1,6.3,70,0.00,,,0.00,WUHU216HW,2013-07-30 16:48:00,
2013-07-30 09:53:00,67.5,57.4,0.00,NW,315,2.5,6.3,70,0.00,,,0.00,WUHU216HW,2013-07-30 16:53:00,
2013-07-30 09:58:00,67.7,57.2,0.00,NW,315,3.1,6.3,69,0.00,,,0.00,WUHU216HW,2013-07-30 16:58:00,
2013-07-30 10:03:00,67.9,57.3,0.00,North,0,2.0,5.8,69,0.00,,,0.00,WUHU216HW,2013-07-30 17:03:00,
2013-07-30 10:08:00,68.4,57.9,0.00,NW,315,3.1,8.5,69,0.00,,,0.00,WUHU216HW,2013-07-30 17:08:00,
2013-07-30 10:13:00,68.8,57.8,0.00,North,0,4.5,8.5,68,0.00,,,0.00,WUHU216HW,2013-07-30 17:13:00,
2013-07-30 10:18:00,68.9,58.0,0.00,NW,315,4.5,6.7,68,0.00,,,0.00,WUHU216HW,2013-07-30 17:18:00,
2013-07-30 10:23:00,69.5,58.0,0.00,NW,315,6.5,6.5,67,0.00,,,0.00,WUHU216HW,2013-07-30 17:23:00,
2013-07-30 10:24:00,69.5,58.0,0.00,NW,315,6.5,6.5,67,0.00,,,0.00,WUHU216HW,2013-07-30 17:24:00,
2013-07-30 10:29:00,69.7,57.8,0.00,NNW,338,2.0,6.5,66,0.00,,,0.00,WUHU216HW,2013-07-30 17:29:00,
2013-07-30 10:34:00,69.8,58.0,0.00,NNW,338,3.8,6.0,66,0.00,,,0.00,WUHU216HW,2013-07-30 17:34:00,
2013-07-30 10:39:00,70.2,57.9,0.00,NE,45,2.7,6.9,65,0.00,,,0.00,WUHU216HW,2013-07-30 17:39:00,
2013-07-30 10:43:00,70.6,58.2,0.00,NW,315,3.1,6.9,65,0.00,,,0.00,WUHU216HW,2013-07-30 17:43:00,
2013-07-30 10:49:00,70.7,58.0,0.00,North,0,4.9,6.7,64,0.00,,,0.00,WUHU216HW,2013-07-30 17:49:00,
2013-07-30 10:54:00,71.1,58.3,0.00,WSW,248,5.4,6.7,64,0.00,,,0.00,WUHU216HW,2013-07-30 17:54:00,
2013-07-30 10:59:00,71.3,58.4,0.00,NNE,23,1.8,8.5,64,0.00,,,0.00,WUHU216HW,2013-07-30 17:59:00,
2013-07-30 11:04:00,71.5,58.6,0.00,ESE,113,1.8,8.5,64,0.00,,,0.00,WUHU216HW,2013-07-30 18:04:00,
2013-07-30 11:09:00,72.0,58.7,0.00,NNW,338,3.8,6.7,63,0.00,,,0.00,WUHU216HW,2013-07-30 18:09:00,
2013-07-30 11:14:00,72.2,58.4,0.00,NNW,338,3.1,6.7,62,0.00,,,0.00,WUHU216HW,2013-07-30 18:14:00,
2013-07-30 11:18:00,72.4,57.7,0.00,NW,315,4.7,5.6,60,0.00,,,0.00,WUHU216HW,2013-07-30 18:18:00,
2013-07-30 11:23:00,73.3,58.1,0.00,SSE,158,2.7,8.5,59,0.00,,,0.00,WUHU216HW,2013-07-30 18:23:00,
2013-07-30 11:29:00,73.1,57.9,0.00,NNW,338,4.7,8.5,59,0.00,,,0.00,WUHU216HW,2013-07-30 18:29:00,
2013-07-30 11:33:00,73.3,58.5,0.00,NW,315,3.8,7.8,60,0.00,,,0.00,WUHU216HW,2013-07-30 18:33:00,
2013-07-30 11:38:00,73.6,58.3,0.00,NW,315,1.1,7.8,59,0.00,,,0.00,WUHU216HW,2013-07-30 18:38:00,
2013-07-30 11:43:00,74.2,58.4,0.00,NNW,338,4.0,5.6,58,0.00,,,0.00,WUHU216HW,2013-07-30 18:43:00,
2013-07-30 11:48:00,74.5,58.2,0.00,SE,135,2.2,5.4,57,0.00,,,0.00,WUHU216HW,2013-07-30 18:48:00,
2013-07-30 11:53:00,74.5,58.2,0.00,NW,315,4.5,8.5,57,0.00,,,0.00,WUHU216HW,2013-07-30 18:53:00,
2013-07-30 11:58:00,74.9,58.2,0.00,NNE,23,4.7,8.5,56,0.00,,,0.00,WUHU216HW,2013-07-30 18:58:00,
2013-07-30 12:03:00,75.1,57.8,0.00,NNW,338,4.0,10.5,55,0.00,,,0.00,WUHU216HW,2013-07-30 19:03:00,
2013-07-30 12:08:00,75.2,58.0,0.00,NNE,23,4.7,10.5,55,0.00,,,0.00,WUHU216HW,2013-07-30 19:08:00,
2013-07-30 12:13:00,75.4,58.6,0.00,NNW,338,4.5,5.8,56,0.00,,,0.00,WUHU216HW,2013-07-30 19:13:00,
2013-07-30 12:18:00,76.1,58.2,0.00,SSW,203,2.0,5.8,54,0.00,,,0.00,WUHU216HW,2013-07-30 19:18:00,
2013-07-30 12:23:00,76.3,58.0,0.00,WNW,293,4.5,5.4,53,0.00,,,0.00,WUHU216HW,2013-07-30 19:23:00,
2013-07-30 12:28:00,76.7,57.8,0.00,NNW,338,1.8,4.7,52,0.00,,,0.00,WUHU216HW,2013-07-30 19:28:00,
2013-07-30 12:33:00,76.9,57.4,0.00,NNW,338,5.8,9.6,51,0.00,,,0.00,WUHU216HW,2013-07-30 19:33:00,
2013-07-30 12:38:00,77.4,57.4,0.00,West,270,2.9,9.6,50,0.00,,,0.00,WUHU216HW,2013-07-30 19:38:00,
2013-07-30 12:43:00,77.8,57.7,0.00,North,0,5.4,6.9,50,0.00,,,0.00,WUHU216HW,2013-07-30 19:43:00,
2013-07-30 12:48:00,77.8,58.2,0.00,WSW,248,4.9,7.6,51,0.00,,,0.00,WUHU216HW,2013-07-30 19:48:00,
2013-07-30 12:53:00,78.1,57.4,0.00,SW,225,3.8,7.6,49,0.00,,,0.00,WUHU216HW,2013-07-30 19:53:00,
2013-07-30 12:58:00,78.3,58.2,0.00,NW,315,7.8,7.8,50,0.00,,,0.00,WUHU216HW,2013-07-30 19:58:00,
2013-07-30 13:03:00,78.5,57.8,0.00,WNW,293,2.7,7.8,49,0.00,,,0.00,WUHU216HW,2013-07-30 20:03:00,
2013-07-30 13:08:00,78.8,57.4,0.00,NW,315,4.7,4.7,48,0.00,,,0.00,WUHU216HW,2013-07-30 20:08:00,
2013-07-30 13:13:00,79.0,57.6,0.00,SSE,158,3.8,5.6,48,0.00,,,0.00,WUHU216HW,2013-07-30 20:13:00,
2013-07-30 13:18:00,79.2,57.8,0.00,WNW,293,2.2,5.6,48,0.00,,,0.00,WUHU216HW,2013-07-30 20:18:00,
2013-07-30 13:23:00,79.7,57.7,0.00,SE,135,1.8,8.5,47,0.00,,,0.00,WUHU216HW,2013-07-30 20:23:00,
2013-07-30 13:28:00,79.9,57.3,0.00,WNW,293,9.6,9.6,46,0.00,,,0.00,WUHU216HW,2013-07-30 20:28:00,
2013-07-30 13:33:00,79.6,57.5,0.00,NNE,23,1.6,9.6,47,0.00,,,0.00,WUHU216HW,2013-07-30 20:33:00,
2013-07-30 13:38:00,79.9,57.8,0.00,NNW,338,2.9,6.7,47,0.00,,,0.00,WUHU216HW,2013-07-30 20:38:00,
2013-07-30 13:43:00,79.9,56.6,0.00,NW,315,4.7,6.9,45,0.00,,,0.00,WUHU216HW,2013-07-30 20:43:00,
2013-07-30 13:48:00,80.1,57.3,0.00,WSW,248,8.1,8.1,46,0.00,,,0.00,WUHU216HW,2013-07-30 20:48:00,
2013-07-30 13:53:00,80.1,56.8,0.00,NNE,23,5.1,8.1,45,0.00,,,0.00,WUHU216HW,2013-07-30 20:53:00,
2013-07-30 13:58:00,80.5,56.4,0.00,NNE,23,3.4,11.4,44,0.00,,,0.00,WUHU216HW,2013-07-30 20:58:00,
2013-07-30 14:03:00,80.6,57.2,0.00,WNW,293,7.2,11.4,45,0.00,,,0.00,WUHU216HW,2013-07-30 21:03:00,
2013-07-30 14:08:00,81.0,57.0,0.00,NW,315,4.0,7.2,44,0.00,,,0.00,WUHU216HW,2013-07-30 21:08:00,
2013-07-30 14:13:00,81.4,57.9,0.00,West,270,3.6,6.9,45,0.00,,,0.00,WUHU216HW,2013-07-30 21:13:00,
2013-07-30 14:18:00,81.7,57.6,0.00,NNE,23,7.4,7.4,44,0.00,,,0.00,WUHU216HW,2013-07-30 21:18:00,
2013-07-30 14:23:00,81.2,57.2,0.00,NNW,338,5.8,11.4,44,0.00,,,0.00,WUHU216HW,2013-07-30 21:23:00,
2013-07-30 14:28:00,81.7,57.6,0.00,NW,315,6.7,11.4,44,0.00,,,0.00,WUHU216HW,2013-07-30 21:28:00,
2013-07-30 14:33:00,82.3,57.5,0.00,North,0,2.9,6.7,43,0.00,,,0.00,WUHU216HW,2013-07-30 21:33:00,
2013-07-30 14:38:00,82.3,56.9,0.00,WNW,293,7.2,7.2,42,0.00,,,0.00,WUHU216HW,2013-07-30 21:38:00,
2013-07-30 14:43:00,81.5,57.4,0.00,SE,135,1.1,8.9,44,0.00,,,0.00,WUHU216HW,2013-07-30 21:43:00,
2013-07-30 14:48:00,82.3,58.1,0.00,NW,315,2.0,8.9,44,0.00,,,0.00,WUHU216HW,2013-07-30 21:48:00,
2013-07-30 14:53:00,82.4,57.6,0.00,North,0,5.8,8.7,43,0.00,,,0.00,WUHU216HW,2013-07-30 21:53:00,
2013-07-30 14:58:00,82.4,58.2,0.00,SW,225,2.0,8.7,44,0.00,,,0.00,WUHU216HW,2013-07-30 21:58:00,
2013-07-30 15:03:00,82.8,58.0,0.00,NNW,338,2.5,7.6,43,0.00,,,0.00,WUHU216HW,2013-07-30 22:03:00,
2013-07-30 15:08:00,82.8,58.0,0.00,NNW,338,3.8,7.6,43,0.00,,,0.00,WUHU216HW,2013-07-30 22:08:00,
2013-07-30 15:13:00,82.8,58.0,0.00,ESE,113,3.8,6.9,43,0.00,,,0.00,WUHU216HW,2013-07-30 22:13:00,
2013-07-30 15:18:00,82.6,57.8,0.00,NW,315,4.0,10.7,43,0.00,,,0.00,WUHU216HW,2013-07-30 22:18:00,
2013-07-30 15:23:00,82.4,57.6,0.00,WNW,293,6.5,10.7,43,0.00,,,0.00,WUHU216HW,2013-07-30 22:23:00,
2013-07-30 15:28:00,83.0,57.5,0.00,NNW,338,3.1,7.4,42,0.00,,,0.00,WUHU216HW,2013-07-30 22:28:00,
2013-07-30 15:33:00,83.5,57.4,0.00,North,0,1.8,7.6,41,0.00,,,0.00,WUHU216HW,2013-07-30 22:33:00,
2013-07-30 15:38:00,83.3,57.3,0.00,North,0,5.8,7.6,41,0.00,,,0.00,WUHU216HW,2013-07-30 22:38:00,
2013-07-30 15:43:00,83.5,57.4,0.00,NW,315,4.0,7.4,41,0.00,,,0.00,WUHU216HW,2013-07-30 22:43:00,
2013-07-30 15:48:00,83.5,58.1,0.00,NNW,338,1.8,7.4,42,0.00,,,0.00,WUHU216HW,2013-07-30 22:48:00,
2013-07-30 15:53:00,83.9,57.1,0.00,NW,315,4.0,5.4,40,0.00,,,0.00,WUHU216HW,2013-07-30 22:53:00,
2013-07-30 15:58:00,84.1,57.2,0.00,NW,315,4.0,5.1,40,0.00,,,0.00,WUHU216HW,2013-07-30 22:58:00,
2013-07-30 16:03:00,84.1,57.2,0.00,NW,315,4.9,4.9,40,0.00,,,0.00,WUHU216HW,2013-07-30 23:03:00,
2013-07-30 16:08:00,83.9,57.7,0.00,NNW,338,1.8,4.9,41,0.00,,,0.00,WUHU216HW,2013-07-30 23:08:00,
2013-07-30 16:13:00,84.2,57.4,0.00,WSW,248,6.0,6.0,40,0.00,,,0.00,WUHU216HW,2013-07-30 23:13:00,
2013-07-30 16:18:00,84.8,57.9,0.00,WSW,248,3.6,6.0,40,0.00,,,0.00,WUHU216HW,2013-07-30 23:18:00,
2013-07-30 16:23:00,84.6,57.0,0.00,NNW,338,2.7,5.4,39,0.00,,,0.00,WUHU216HW,2013-07-30 23:23:00,
2013-07-30 16:28:00,84.4,56.8,0.00,NNW,338,7.6,7.6,39,0.00,,,0.00,WUHU216HW,2013-07-30 23:28:00,
2013-07-30 16:34:00,84.2,57.4,0.00,WNW,293,3.4,9.2,40,0.00,,,0.00,WUHU216HW,2013-07-30 23:34:00,
2013-07-30 16:38:00,84.6,57.0,0.00,NW,315,4.5,9.2,39,0.00,,,0.00,WUHU216HW,2013-07-30 23:38:00,
2013-07-30 16:43:00,84.6,57.0,0.00,North,0,3.1,5.1,39,0.00,,,0.00,WUHU216HW,2013-07-30 23:43:00,
2013-07-30 16:48:00,84.6,56.2,0.00,WNW,293,4.0,6.7,38,0.00,,,0.00,WUHU216HW,2013-07-30 23:48:00,
2013-07-30 16:53:00,84.8,56.4,0.00,NW,315,6.3,6.7,38,0.00,,,0.00,WUHU216HW,2013-07-30 23:53:00,
2013-07-30 16:58:00,84.6,56.2,0.00,WNW,293,4.7,6.3,38,0.00,,,0.00,WUHU216HW,2013-07-30 23:58:00,
2013-07-30 17:03:00,85.0,55.7,0.00,NNW,338,1.8,4.9,37,0.00,,,0.00,WUHU216HW,2013-07-31 00:03:00,
2013-07-30 17:08:00,85.1,55.9,0.00,NW,315,2.0,5.4,37,0.00,,,0.00,WUHU216HW,2013-07-31 00:08:00,
2013-07-30 17:13:00,85.0,55.7,0.00,NNW,338,4.7,7.6,37,0.00,,,0.00,WUHU216HW,2013-07-31 00:13:00,
2013-07-30 17:18:00,85.1,54.3,0.00,NNW,338,4.9,7.6,35,0.00,,,0.00,WUHU216HW,2013-07-31 00:18:00,
2013-07-30 17:23:00,85.7,54.7,0.00,SSE,158,2.2,5.1,35,0.00,,,0.00,WUHU216HW,2013-07-31 00:23:00,
2013-07-30 17:28:00,85.3,54.5,0.00,WSW,248,2.5,5.4,35,0.00,,,0.00,WUHU216HW,2013-07-31 00:28:00,
2013-07-30 17:33:00,85.0,54.1,0.00,West,270,4.5,5.4,35,0.00,,,0.00,WUHU216HW,2013-07-31 00:33:00,
2013-07-30 17:38:00,84.6,53.0,0.00,WNW,293,2.0,5.4,34,0.00,,,0.00,WUHU216HW,2013-07-31 00:38:00,
2013-07-30 17:43:00,84.6,53.0,0.00,NNW,338,1.8,4.5,34,0.00,,,0.00,WUHU216HW,2013-07-31 00:43:00,
2013-07-30 17:48:00,84.2,53.5,0.00,West,270,1.8,3.8,35,0.00,,,0.00,WUHU216HW,2013-07-31 00:48:00,
2013-07-30 17:53:00,84.2,52.7,0.00,NNW,338,4.0,4.7,34,0.00,,,0.00,WUHU216HW,2013-07-31 00:53:00,
2013-07-30 17:58:00,84.1,53.3,0.00,NNW,338,1.8,4.7,35,0.00,,,0.00,WUHU216HW,2013-07-31 00:58:00,
2013-07-30 18:03:00,84.1,54.9,0.00,NNE,23,0.4,4.7,37,0.00,,,0.00,WUHU216HW,2013-07-31 01:03:00,
2013-07-30 18:08:00,84.2,55.1,0.00,NW,315,3.4,4.0,37,0.00,,,0.00,WUHU216HW,2013-07-31 01:08:00,
2013-07-30 18:13:00,84.2,55.8,0.00,WSW,248,8.5,8.5,38,0.00,,,0.00,WUHU216HW,2013-07-31 01:13:00,
2013-07-30 18:18:00,84.1,56.4,0.00,NNE,23,4.0,8.5,39,0.00,,,0.00,WUHU216HW,2013-07-31 01:18:00,
2013-07-30 18:24:00,83.9,56.4,0.00,NW,315,4.9,6.7,39,0.00,,,0.00,WUHU216HW,2013-07-31 01:24:00,
2013-07-30 18:29:00,83.2,56.4,0.00,NNW,338,3.8,9.6,40,0.00,,,0.00,WUHU216HW,2013-07-31 01:29:00,
2013-07-30 18:34:00,83.0,56.3,0.00,North,0,3.1,9.6,40,0.00,,,0.00,WUHU216HW,2013-07-31 01:34:00,
2013-07-30 18:39:00,82.8,56.7,0.00,NNW,338,3.8,8.1,41,0.00,,,0.00,WUHU216HW,2013-07-31 01:39:00,
2013-07-30 18:44:00,82.8,56.7,0.00,NW,315,2.0,8.1,41,0.00,,,0.00,WUHU216HW,2013-07-31 01:44:00,
2013-07-30 18:49:00,83.0,56.9,0.00,North,0,1.1,6.0,41,0.00,,,0.00,WUHU216HW,2013-07-31 01:49:00,
2013-07-30 18:54:00,83.2,57.7,0.00,SE,135,0.9,3.8,42,0.00,,,0.00,WUHU216HW,2013-07-31 01:54:00,
2013-07-30 18:59:00,82.8,57.3,0.00,West,270,2.7,5.1,42,0.00,,,0.00,WUHU216HW,2013-07-31 01:59:00,
2013-07-30 19:04:00,82.8,57.3,0.00,West,270,1.8,5.1,42,0.00,,,0.00,WUHU216HW,2013-07-31 02:04:00,
2013-07-30 19:09:00,82.6,57.2,0.00,NW,315,3.4,4.7,42,0.00,,,0.00,WUHU216HW,2013-07-31 02:09:00,
2013-07-30 19:14:00,82.8,56.7,0.00,NNW,338,2.5,4.0,41,0.00,,,0.00,WUHU216HW,2013-07-31 02:14:00,
2013-07-30 19:19:00,82.6,56.6,0.00,WNW,293,2.9,5.4,41,0.00,,,0.00,WUHU216HW,2013-07-31 02:19:00,
2013-07-30 19:24:00,82.4,56.4,0.00,North,0,1.8,5.4,41,0.00,,,0.00,WUHU216HW,2013-07-31 02:24:00,
2013-07-30 19:29:00,82.1,56.7,0.00,NW,315,2.5,5.4,42,0.00,,,0.00,WUHU216HW,2013-07-31 02:29:00,
2013-07-30 19:34:00,81.5,56.8,0.00,NW,315,2.5,3.6,43,0.00,,,0.00,WUHU216HW,2013-07-31 02:34:00,
2013-07-30 19:39:00,81.4,56.1,0.00,North,0,1.8,3.6,42,0.00,,,0.00,WUHU216HW,2013-07-31 02:39:00,
2013-07-30 19:44:00,81.0,55.7,0.00,NE,45,0.4,4.0,42,0.00,,,0.00,WUHU216HW,2013-07-31 02:44:00,
2013-07-30 19:49:00,80.6,55.5,0.00,North,0,1.3,4.0,42,0.00,,,0.00,WUHU216HW,2013-07-31 02:49:00,
2013-07-30 19:54:00,80.3,55.1,0.00,North,0,1.6,3.4,42,0.00,,,0.00,WUHU216HW,2013-07-31 02:54:00,
2013-07-30 19:59:00,80.1,56.2,0.00,NW,315,2.0,3.4,44,0.00,,,0.00,WUHU216HW,2013-07-31 02:59:00,
2013-07-30 20:04:00,79.9,56.0,0.00,ENE,68,0.4,2.0,44,0.00,,,0.00,WUHU216HW,2013-07-31 03:04:00,
2013-07-30 20:09:00,79.4,56.1,0.00,SSW,203,0.9,2.5,45,0.00,,,0.00,WUHU216HW,2013-07-31 03:09:00,
2013-07-30 20:14:00,79.4,56.1,0.00,ENE,68,0.9,2.9,45,0.00,,,0.00,WUHU216HW,2013-07-31 03:14:00,
2013-07-30 20:19:00,79.2,54.7,0.00,North,0,1.8,3.4,43,0.00,,,0.00,WUHU216HW,2013-07-31 03:19:00,
2013-07-30 20:24:00,79.2,54.1,0.00,NNW,338,0.4,4.7,42,0.00,,,0.00,WUHU216HW,2013-07-31 03:24:00,
2013-07-30 20:29:00,79.0,54.5,0.00,NE,45,1.1,4.7,43,0.00,,,0.00,WUHU216HW,2013-07-31 03:29:00,
2013-07-30 20:34:00,78.5,55.3,0.00,SW,225,0.4,2.2,45,0.00,,,0.00,WUHU216HW,2013-07-31 03:34:00,
2013-07-30 20:39:00,78.1,55.0,0.00,NE,45,0.2,1.8,45,0.00,,,0.00,WUHU216HW,2013-07-31 03:39:00,
2013-07-30 20:43:00,77.8,54.6,0.00,SW,225,1.6,2.5,45,0.00,,,0.00,WUHU216HW,2013-07-31 03:43:00,
2013-07-30 20:48:00,77.6,55.1,0.00,ENE,68,0.9,2.5,46,0.00,,,0.00,WUHU216HW,2013-07-31 03:48:00,
2013-07-30 20:53:00,77.2,54.8,0.00,ESE,113,0.9,4.9,46,0.00,,,0.00,WUHU216HW,2013-07-31 03:53:00,
2013-07-30 20:58:00,77.0,54.6,0.00,East,90,0.4,4.9,46,0.00,,,0.00,WUHU216HW,2013-07-31 03:58:00,
2013-07-30 21:01:00,77.0,54.6,0.00,North,0,1.8,4.9,46,0.00,,,0.00,WUHU216HW,2013-07-31 04:01:00,
2013-07-30 21:02:00,77.0,54.6,0.00,North,0,1.8,2.2,46,0.00,,,0.00,WUHU216HW,2013-07-31 04:02:00,
2013-07-30 21:07:00,76.7,54.9,0.00,NE,45,0.4,1.8,47,0.00,,,0.00,WUHU216HW,2013-07-31 04:07:00,
2013-07-30 21:12:00,76.5,54.7,0.00,East,90,0.4,2.9,47,0.00,,,0.00,WUHU216HW,2013-07-31 04:12:00,
2013-07-30 21:17:00,76.3,54.5,0.00,SSE,158,0.4,2.9,47,0.00,,,0.00,WUHU216HW,2013-07-31 04:17:00,
2013-07-30 21:22:00,76.0,54.3,0.00,NNE,23,1.8,2.0,47,0.00,,,0.00,WUHU216HW,2013-07-31 04:22:00,
2013-07-30 21:27:00,75.8,54.1,0.00,ESE,113,1.1,2.2,47,0.00,,,0.00,WUHU216HW,2013-07-31 04:27:00,
2013-07-30 21:32:00,75.6,54.5,0.00,SSE,158,0.0,3.4,48,0.00,,,0.00,WUHU216HW,2013-07-31 04:32:00,
2013-07-30 21:37:00,75.6,53.9,0.00,East,90,1.1,3.4,47,0.00,,,0.00,WUHU216HW,2013-07-31 04:37:00,
2013-07-30 21:42:00,75.2,54.2,0.00,South,180,0.4,3.4,48,0.00,,,0.00,WUHU216HW,2013-07-31 04:42:00,
2013-07-30 21:47:00,75.2,54.2,0.00,NE,45,2.0,3.4,48,0.00,,,0.00,WUHU216HW,2013-07-31 04:47:00,
2013-07-30 21:52:00,75.2,54.2,0.00,North,0,1.8,3.1,48,0.00,,,0.00,WUHU216HW,2013-07-31 04:52:00,
2013-07-30 21:57:00,75.2,54.2,0.00,NNW,338,1.8,3.1,48,0.00,,,0.00,WUHU216HW,2013-07-31 04:57:00,
2013-07-30 22:02:00,75.1,54.0,0.00,NW,315,2.2,2.7,48,0.00,,,0.00,WUHU216HW,2013-07-31 05:02:00,
2013-07-30 22:07:00,74.9,54.5,0.00,North,0,1.8,3.8,49,0.00,,,0.00,WUHU216HW,2013-07-31 05:07:00,
2013-07-30 22:12:00,74.9,54.5,0.00,North,0,1.3,3.8,49,0.00,,,0.00,WUHU216HW,2013-07-31 05:12:00,
2013-07-30 22:17:00,74.7,54.3,0.00,NW,315,0.9,2.7,49,0.00,,,0.00,WUHU216HW,2013-07-31 05:17:00,
2013-07-30 22:22:00,74.7,54.3,0.00,NNW,338,1.3,2.7,49,0.00,,,0.00,WUHU216HW,2013-07-31 05:22:00,
2013-07-30 22:27:00,74.5,54.1,0.00,NW,315,3.4,4.9,49,0.00,,,0.00,WUHU216HW,2013-07-31 05:27:00,
2013-07-30 22:32:00,74.3,54.5,0.00,NNW,338,1.6,6.5,50,0.00,,,0.00,WUHU216HW,2013-07-31 05:32:00,
2013-07-30 22:37:00,74.2,54.4,0.00,WSW,248,6.3,6.5,50,0.00,,,0.00,WUHU216HW,2013-07-31 05:37:00,
2013-07-30 22:42:00,74.2,54.4,0.00,North,0,1.1,6.3,50,0.00,,,0.00,WUHU216HW,2013-07-31 05:42:00,
2013-07-30 22:47:00,74.0,54.2,0.00,WNW,293,2.2,6.3,50,0.00,,,0.00,WUHU216HW,2013-07-31 05:47:00,
2013-07-30 22:52:00,74.0,54.2,0.00,NNW,338,1.1,4.0,50,0.00,,,0.00,WUHU216HW,2013-07-31 05:52:00,
2013-07-30 22:57:00,73.8,54.0,0.00,NW,315,0.4,4.9,50,0.00,,,0.00,WUHU216HW,2013-07-31 05:57:00,
2013-07-30 23:02:00,73.8,55.0,0.00,North,0,0.4,4.9,52,0.00,,,0.00,WUHU216HW,2013-07-31 06:02:00,
2013-07-30 23:07:00,73.6,54.8,0.00,SE,135,0.0,2.5,52,0.00,,,0.00,WUHU216HW,2013-07-31 06:07:00,
2013-07-30 23:12:00,73.6,54.8,0.00,North,0,0.4,2.5,52,0.00,,,0.00,WUHU216HW,2013-07-31 06:12:00,
2013-07-30 23:17:00,73.4,54.2,0.00,NNW,338,0.0,2.5,51,0.00,,,0.00,WUHU216HW,2013-07-31 06:17:00,
2013-07-30 23:22:00,73.4,54.6,0.00,NNW,338,0.4,2.5,52,0.00,,,0.00,WUHU216HW,2013-07-31 06:22:00,
2013-07-30 23:27:00,73.1,54.4,0.00,NNW,338,0.0,0.4,52,0.00,,,0.00,WUHU216HW,2013-07-31 06:27:00,
2013-07-30 23:32:00,72.7,54.0,0.00,NW,315,0.4,1.8,52,0.00,,,0.00,WUHU216HW,2013-07-31 06:32:00,
2013-07-30 23:37:00,72.7,54.0,0.00,NW,315,0.0,1.8,52,0.00,,,0.00,WUHU216HW,2013-07-31 06:37:00,
2013-07-30 23:42:00,72.7,54.6,0.00,NW,315,0.9,2.0,53,0.00,,,0.00,WUHU216HW,2013-07-31 06:42:00,
2013-07-30 23:47:00,72.7,55.0,0.00,NNW,338,1.8,2.9,54,0.00,,,0.00,WUHU216HW,2013-07-31 06:47:00,
2013-07-30 23:52:00,72.7,55.0,0.00,North,0,3.4,3.4,54,0.00,,,0.00,WUHU216HW,2013-07-31 06:52:00,
2013-07-30 23:57:00,72.5,54.8,0.00,NW,315,0.0,3.4,54,0.00,,,0.00,WUHU216HW,2013-07-31 06:57:00,